Simultaneous Nadir Overpasses (SNOs) Predictions

Prediction of SNOs between GOES-17 and LANDSAT-8 Satellite Orbit:

Table of predicted SNOs for the next 14.0 days since TLE Epoch: 10/1/2022
Index Date Time (GOES-17) GOES-17 Lat,Lon LANDSAT-8 Lat,Lon Distance(km) Time Diff (sec)
1 10/01/2022 07:29:41 0.07,-137.33 -0.37,-139.48 244.48 80
2 10/03/2022 07:20:08 0.06,-137.30 0.20,-136.51 89.34 80
3 10/03/2022 19:38:44 -0.06,-137.29 0.85,-141.67 497.84 80
4 10/05/2022 07:07:56 0.06,-137.27 0.84,-133.55 422.56 80
5 10/05/2022 19:26:31 -0.06,-137.26 0.27,-138.70 164.59 80
6 10/07/2022 19:16:59 -0.05,-137.23 -0.38,-135.75 168.63 80
7 10/08/2022 07:38:23 0.05,-137.22 -0.72,-140.94 422.37 80
8 10/10/2022 07:26:10 0.05,-137.18 -0.11,-137.97 89.41 80
9 10/12/2022 07:11:17 0.05,-137.14 0.51,-135.01 243.10 80
10 10/12/2022 19:32:32 -0.05,-137.13 0.59,-140.16 344.48 80
11 10/14/2022 19:20:19 -0.05,-137.08 -0.04,-137.20 12.93 80
